This is the latest recevied weather packets stored in our database for station/object DG9VH-13. If no packets are shown the sender has not sent any weather packets the latest 10 day(s).
| Time | Temp. | Humidity | Pressure | Rain* | Wind** | Luminosity | Snow |
|---|---|---|---|---|---|---|---|
| 1777147804 | 15° C | 43% | 1002.6 hPa | - | - | - | - |
| 1777147201 | 15.56° C | 42% | 1002.5 hPa | - | - | - | - |
| 1777146604 | 15.56° C | 42% | 1002.2 hPa | - | - | - | - |
| 1777146001 | 15.56° C | 43% | 1002.3 hPa | - | - | - | - |
| 1777145405 | 16.11° C | 41% | 1001.8 hPa | - | - | - | - |
| 1777144804 | 16.67° C | 42% | 1001.7 hPa | - | - | - | - |
| 1777144201 | 16.67° C | 39% | 1001.6 hPa | - | - | - | - |
| 1777143601 | 16.67° C | 36% | 1001.5 hPa | - | - | - | - |
| 1777143001 | 17.22° C | 36% | 1001.3 hPa | - | - | - | - |
| 1777142404 | 17.78° C | 34% | 1001.2 hPa | - | - | - | - |
| 1777141805 | 17.78° C | 34% | 1001.1 hPa | - | - | - | - |
| 1777141204 | 18.33° C | 32% | 1001 hPa | - | - | - | - |
| 1777140604 | 18.33° C | 30% | 1001 hPa | - | - | - | - |
| 1777140001 | 18.89° C | 28% | 1000.8 hPa | - | - | - | - |
| 1777139404 | 18.89° C | 28% | 1000.7 hPa | - | - | - | - |
| 1777138804 | 18.89° C | 27% | 1000.6 hPa | - | - | - | - |
| 1777138201 | 18.89° C | 27% | 1000.5 hPa | - | - | - | - |
| 1777137601 | 19.44° C | 27% | 1000.5 hPa | - | - | - | - |
| 1777137001 | 19.44° C | 27% | 1000.5 hPa | - | - | - | - |
| 1777136404 | 19.44° C | 26% | 1000.4 hPa | - | - | - | - |
| 1777135801 | 19.44° C | 26% | 1000.3 hPa | - | - | - | - |
| 1777135201 | 20° C | 26% | 1000.3 hPa | - | - | - | - |
| 1777134601 | 20° C | 27% | 1000.2 hPa | - | - | - | - |
| 1777134001 | 20° C | 26% | 1000.1 hPa | - | - | - | - |
| 1777133401 | 20° C | 26% | 1000.1 hPa | - | - | - | - |
* Rain since midnight (hover to see other rain measurements)
** Current wind speed in m/s (hover to see current wind gust speed)